Weather in El-Tor

Egypt     28°14′21″N   33°37′32″E
temp.,
°C
wind,
m/s
gust,
m/s
humid.,
%
clouds,
%
prec.,
mm/h
press.,
hPa
HPBL,
m
26 june, sun
sun2623:00+29nw57290 0.0 100574
02:00+25nw58500 0.0 1006134
05:00+22wnw34670 0.0 100772
08:00+27w22410 0.0 1008417
11:00+34w53230 0.0 10071194
14:00+35w87230 0.0 10061074
17:00+36wnw98170 0.0 10051071
20:00+31nnw34200 0.0 100542
27 june, mon
mon2723:00+28nnw22220 0.0 100618
02:00+26nw23280 0.0 100628
05:00+25sse11290 0.0 100715
08:00+31wsw11240 0.0 1008294
11:00+37w54170 0.0 10071397
14:00+38wnw1210160 0.0 10051520
17:00+37nw1212130 0.0 10041132
20:00+32nnw711190 0.0 1005127
28 june, tue
tue2823:00+29nw56300 0.0 100559
02:00+28nw68360 0.0 100593
05:00+26nw45490 0.0 100659
08:00+31wnw67350 0.0 1006628
11:00+35wnw87180 0.0 10061387
14:00+38wnw97100 0.0 10031773
17:00+36nw1010120 0.0 10031243
20:00+30nnw59220 0.0 100497
29 june, wed
wed2923:00+29nnw45240 0.0 100534
02:00+26nw45360 0.0 100544
05:00+24wnw23520 0.0 100635
08:00+31wnw56300 0.0 1006583
11:00+35w86270 0.0 10051359
14:00+37wnw86180 0.0 10041507
17:00+36nw87130 0.0 10031239
20:00+30nnw57230 0.0 100465
30 june, thu
thu3023:00+29nw45280 0.0 100541
02:00+26nw34360 0.0 100433
05:00+24wnw23480 0.0 100533
08:00+31wnw44350 0.0 1006517
11:00+35w75260 0.0 10051627
14:00+37wnw98200 0.0 10041787
17:00+37nw88160 0.0 10031361
20:00+31nnw510290 0.0 1004114